Waarnemingen

Advertentie
Mijn weer
Saint-Brieuc, Frankrijk (7120): temperatuur & dauwpunt: 10.07.2019 04:00:00 - 16.07.2019 04:00:00 (CEST)Saint-Brieuc, Frankrijk (7120): temperatuur 5cm: 10.07.2019 04:00:00 - 16.07.2019 04:00:00 (CEST)Saint-Brieuc, Frankrijk (7120): temperatuur -20cm & temperatuur -100cm: 10.07.2019 04:00:00 - 16.07.2019 04:00:00 (CEST)Saint-Brieuc, Frankrijk (7120): windsnelheid & windstoten: 10.07.2019 04:00:00 - 16.07.2019 04:00:00 (CEST)Saint-Brieuc, Frankrijk (7120): windrichting: 10.07.2019 04:00:00 - 16.07.2019 04:00:00 (CEST)Saint-Brieuc, Frankrijk (7120): luchtdruk: 10.07.2019 04:00:00 - 16.07.2019 04:00:00 (CEST)Saint-Brieuc, Frankrijk (7120): zicht: 10.07.2019 04:00:00 - 16.07.2019 04:00:00 (CEST)Saint-Brieuc, Frankrijk (7120): Zonneschijnduur: 10.07.2019 04:00:00 - 16.07.2019 04:00:00 (CEST)Saint-Brieuc, Frankrijk (7120): neerslag: 10.07.2019 04:00:00 - 16.07.2019 04:00:00 (CEST)
Datum & Tijd tt [°C] td [°C] tt 5cm [°C] tt -20cm [°C] tt -100cm [°C] ff [km/u] ff [kn] fx [km/u] fx [kn] dd ppp [hPa] vv [km] sd [min] rr [mm]
16.07.2019 04:00:00 12,6 12,0 8,4 18,8 17,0 0 0 2 1 N 1020,0 18 0 0,0
16.07.2019 03:00:00 12,8 11,9 9,1 19,0 17,0 0 0 4 2 N 1020,3 20 0 0,0
16.07.2019 02:00:00 13,5 12,2 9,8 19,2 17,0 3 2 6 3 WZW 1020,7 20 0 0,0
16.07.2019 01:00:00 13,6 12,0 9,0 19,4 17,0 3 2 6 3 W 1020,9 20 0 0,0
16.07.2019 00:00:00 14,2 12,2 9,1 19,6 17,0 6 3 8 4 ONO 1020,8 20 0 0,0
15.07.2019 23:00:00 14,5 12,7 10,9 19,7 17,0 5 3 7 4 ONO 1020,8 20 0 0,0
15.07.2019 22:00:00 14,5 12,5 12,5 19,8 17,1 7 4 16 9 NO 1020,7 20 38 0,0
15.07.2019 21:00:00 16,5 13,0 17,2 19,9 17,1 12 6 22 12 NNO 1020,7 20 40 0,0
15.07.2019 20:00:00 17,6 13,1 20,1 19,9 17,1 16 9 24 13 NO 1020,6 20 60 0,0
15.07.2019 19:00:00 18,4 13,5 22,8 19,7 17,1 19 10 29 15 NNO 1020,5 20 60 0,0
15.07.2019 18:00:00 18,8 13,6 24,2 19,6 17,0 21 11 30 16 NO 1020,7 20 60 0,0
15.07.2019 17:00:00 18,8 13,6 24,1 19,4 17,1 19 11 35 19 NO 1021,1 20 60 0,0
15.07.2019 16:00:00 19,5 12,5 24,8 19,1 17,0 23 13 37 20 NO 1021,0 20 60 0,0
15.07.2019 15:00:00 19,4 12,4 24,3 18,9 17,0 22 12 33 18 NO 1021,2 20 60 0,0
15.07.2019 14:00:00 19,0 12,3 23,8 18,7 17,1 21 12 35 19 ONO 1021,5 20 60 0,0
15.07.2019 13:00:00 18,8 11,8 22,8 18,5 17,1 23 12 41 22 ONO 1021,6 20 60 0,0
15.07.2019 12:00:00 18,6 12,1 20,7 18,4 17,0 26 14 39 21 ONO 1021,6 20 58 0,0
15.07.2019 11:00:00 17,7 11,9 17,9 18,3 17,0 22 12 39 21 ONO 1021,9 20 35 0,0
15.07.2019 10:00:00 17,2 13,5 17,0 18,3 17,0 19 10 35 19 ONO 1021,9 20 26 0,0
15.07.2019 09:00:00 16,6 12,5 17,0 18,4 17,0 12 7 23 12 O 1021,7 20 60 0,0
15.07.2019 08:00:00 15,9 12,5 13,6 18,5 17,0 13 7 22 12 O 1021,4 20 44 0,0
15.07.2019 07:00:00 14,6 13,0 12,5 18,6 17,0 9 5 18 10 O 1021,4 20 1 0,0
15.07.2019 06:00:00 14,5 12,7 12,6 18,8 17,0 9 5 20 11 O 1021,4 20 0 0,0
15.07.2019 05:00:00 14,5 12,4 10,9 18,9 17,0 11 6 19 10 O 1021,2 20 0 0,0
15.07.2019 04:00:00 13,9 11,8 10,9 19,1 17,0 8 5 14 7 ONO 1021,4 20 0 0,0
15.07.2019 03:00:00 14,3 12,2 12,2 19,2 17,0 10 5 18 10 O 1021,7 20 0 0,0
15.07.2019 02:00:00 14,6 12,1 12,8 19,4 17,0 11 6 18 10 O 1021,7 20 0 0,0
15.07.2019 01:00:00 15,2 12,3 13,6 19,5 17,0 10 6 20 11 ONO 1021,7 20 0 0,0
15.07.2019 00:00:00 15,7 13,4 13,7 19,7 17,0 12 7 17 9 ONO 1021,4 20 0 0,0
14.07.2019 23:00:00 16,4 13,7 14,9 19,8 17,0 9 5 22 12 ONO 1021,2 20 0 0,0
14.07.2019 22:00:00 16,8 13,5 16,1 19,9 17,0 16 9 34 19 ONO 1021,0 20 42 0,0
14.07.2019 21:00:00 17,8 13,9 18,6 20,0 17,0 23 12 40 22 ONO 1020,7 20 60 0,0
14.07.2019 20:00:00 18,8 13,9 21,0 20,0 17,0 26 14 40 22 NO 1020,8 20 60 0,0
14.07.2019 19:00:00 19,5 13,7 22,9 19,9 17,0 28 15 40 22 NO 1020,7 20 60 0,0
14.07.2019 18:00:00 20,1 14,2 24,0 19,7 17,0 28 15 40 22 NO 1020,8 20 60 0,0
14.07.2019 17:00:00 20,5 13,9 25,4 19,6 17,0 28 15 44 24 NO 1020,7 20 60 0,0
14.07.2019 16:00:00 21,0 14,6 25,6 19,3 17,0 28 15 40 22 NO 1020,6 20 60 0,0
14.07.2019 15:00:00 20,7 14,6 24,8 19,1 17,0 27 14 44 24 NO 1021,0 20 60 0,0
14.07.2019 14:00:00 20,3 14,6 25,2 18,8 17,0 26 14 42 23 NO 1021,0 20 60 0,0
14.07.2019 13:00:00 20,5 15,3 24,4 18,7 17,0 24 13 32 18 ONO 1020,9 20 60 0,0
14.07.2019 12:00:00 19,5 15,4 20,6 18,6 17,0 21 12 31 17 ONO 1020,9 19 46 0,0
14.07.2019 11:00:00 17,9 16,1 18,6 18,5 17,0 16 9 26 14 ONO 1020,9 10 2 0,0
14.07.2019 10:00:00 17,1 15,8 17,8 18,4 17,0 18 10 25 13 NO 1020,9 8 18 0,0
14.07.2019 09:00:00 16,5 15,9 14,5 18,4 17,0 11 6 16 9 ONO 1020,7 7 19 0,0
14.07.2019 08:00:00 13,8 13,8 11,8 18,5 17,0 0 0 5 3 N 1020,5 9 0 0,0
14.07.2019 07:00:00 12,2 12,2 8,6 18,7 17,0 4 2 7 4 W 1020,5 5 0 0,0
14.07.2019 06:00:00 11,5 11,5 8,1 18,9 17,0 5 3 7 4 W 1020,5 0,7 0 0,0
14.07.2019 05:00:00 11,6 11,4 8,1 19,1 17,0 3 1 6 3 NW 1020,8 8 0 0,0
14.07.2019 04:00:00 12,4 12,4 8,5 19,3 17,0 5 3 6 4 WNW 1021,3 8 0 0,0
14.07.2019 03:00:00 12,5 11,6 9,1 19,4 17,0 4 2 7 4 NW 1021,6 8 0 0,0
14.07.2019 02:00:00 12,9 12,7 8,8 19,6 17,0 3 2 6 3 NNW 1022,1 9 0 0,0
14.07.2019 01:00:00 13,7 13,4 9,0 19,8 17,0 3 2 10 5 N 1022,1 10 0 0,0
14.07.2019 00:00:00 14,4 13,8 12,2 20,0 17,0 6 4 13 7 N 1022,1 13 0 0,0
13.07.2019 23:00:00 14,7 13,4 13,2 20,1 17,0 9 5 19 10 N 1022,0 19 0 0,0
13.07.2019 22:00:00 15,9 13,7 15,2 20,2 17,0 12 7 26 14 N 1021,7 20 43 0,0
13.07.2019 21:00:00 17,4 13,1 18,7 20,3 17,0 18 10 29 15 N 1021,6 20 60 0,0
13.07.2019 20:00:00 18,3 12,9 21,6 20,3 17,0 21 12 33 18 NNO 1021,7 20 60 0,0
13.07.2019 19:00:00 19,0 12,0 23,2 20,2 17,0 23 12 36 20 NO 1021,9 20 60 0,0
13.07.2019 18:00:00 19,4 13,3 24,0 20,1 17,0 22 12 32 18 NNO 1022,2 20 60 0,0
13.07.2019 17:00:00 19,4 12,6 25,5 19,9 17,0 22 12 30 16 NNO 1022,4 20 60 0,0
13.07.2019 16:00:00 19,9 13,6 26,4 19,6 17,0 19 11 31 17 NNO 1022,3 20 60 0,0
13.07.2019 15:00:00 19,8 15,4 25,8 19,3 17,0 18 10 28 15 NO 1022,5 20 60 0,0
13.07.2019 14:00:00 19,2 15,1 25,6 19,1 17,0 21 11 30 16 NNO 1022,7 20 60 0,0
13.07.2019 13:00:00 19,6 14,8 20,8 18,9 17,0 12 6 22 12 NNO 1022,5 20 43 0,0
13.07.2019 12:00:00 18,6 15,5 20,4 18,8 16,9 14 8 24 13 NO 1022,6 20 14 0,0
13.07.2019 11:00:00 17,4 15,2 18,3 18,8 17,0 15 8 24 13 NNO 1022,7 20 5 0,0
13.07.2019 10:00:00 16,5 14,7 18,2 18,7 16,9 14 8 22 12 NNO 1022,7 20 23 0,0
13.07.2019 09:00:00 16,4 15,1 16,2 18,8 16,9 10 5 16 8 N 1022,3 20 58 0,2
13.07.2019 08:00:00 13,9 13,6 11,0 18,9 16,9 9 5 13 7 NW 1022,3 12 41 0,0
13.07.2019 07:00:00 12,5 12,5 10,3 19,0 16,9 7 4 11 6 W 1021,8 14 0 0,0
13.07.2019 06:00:00 12,3 12,0 10,5 19,2 16,9 7 4 12 7 W 1021,9 11 0 0,0
13.07.2019 05:00:00 12,8 12,8 10,4 19,4 16,9 9 5 12 6 WNW 1021,8 12 0 0,0
13.07.2019 04:00:00 13,0 13,0 10,6 19,6 16,9 9 5 12 6 W 1021,8 11 0 0,0
13.07.2019 03:00:00 13,7 13,5 11,1 19,8 16,9 7 4 11 6 W 1021,8 16 0 0,0
13.07.2019 02:00:00 13,8 13,5 12,4 20,0 16,9 9 5 13 7 NW 1021,6 17 0 0,0
13.07.2019 01:00:00 14,3 13,7 12,8 20,1 16,9 8 5 13 7 WNW 1021,4 20 0 0,0
13.07.2019 00:00:00 14,8 13,3 13,3 20,3 16,9 9 5 13 7 WNW 1021,4 20 0 0,0
12.07.2019 23:00:00 15,6 13,4 14,2 20,5 16,9 8 4 21 12 NW 1021,1 20 0 0,0
12.07.2019 22:00:00 17,2 13,7 16,3 20,6 16,9 9 5 23 13 NNW 1020,5 20 43 0,0
12.07.2019 21:00:00 19,1 13,9 19,6 20,7 16,9 14 8 26 14 NNW 1019,9 20 58 0,0
12.07.2019 20:00:00 20,7 14,6 20,8 20,7 16,9 13 7 24 13 N 1019,4 20 38 0,0
12.07.2019 19:00:00 21,2 14,4 22,1 20,6 16,9 10 6 28 15 NNW 1018,8 20 45 0,0
12.07.2019 18:00:00 20,9 14,1 21,6 20,5 16,9 16 9 31 17 NNW 1018,9 20 32 0,0
12.07.2019 17:00:00 21,0 15,3 23,4 20,3 16,8 21 11 33 18 N 1018,7 20 25 0,0
12.07.2019 16:00:00 22,2 15,5 24,6 20,1 16,9 16 9 29 15 N 1018,4 20 26 0,0
12.07.2019 15:00:00 22,4 15,5 23,7 19,9 16,9 16 8 33 18 NNW 1018,1 20 24 0,0
12.07.2019 14:00:00 21,6 16,5 23,2 19,7 16,9 16 8 33 18 N 1017,9 20 25 0,0
12.07.2019 13:00:00 21,8 15,4 23,1 19,6 16,9 16 9 32 18 NW 1017,6 20 35 0,0
12.07.2019 12:00:00 21,4 15,5 20,2 19,5 16,8 17 9 29 15 NW 1017,3 20 37 0,0
12.07.2019 11:00:00 19,3 16,5 18,4 19,4 16,8 17 9 28 15 NW 1017,1 20 11 0,0
12.07.2019 10:00:00 19,4 17,2 18,6 19,4 16,8 13 7 20 11 WNW 1016,8 20 6 0,0
12.07.2019 09:00:00 17,7 16,9 17,1 19,5 16,8 8 4 16 9 W 1016,4 20 0 0,0
12.07.2019 08:00:00 17,3 16,5 16,3 19,5 16,8 7 4 16 8 WNW 1016,1 20 0 0,0
12.07.2019 07:00:00 16,5 16,2 15,9 19,6 16,8 7 4 13 7 WZW 1015,7 17 0 0,0
12.07.2019 06:00:00 16,2 16,0 15,6 19,7 16,8 5 3 10 6 ZZW 1015,5 16 0 0,2
12.07.2019 05:00:00 15,9 15,6 15,5 19,7 16,8 5 3 13 7 ZW 1015,5 3,1 0 0,0
12.07.2019 04:00:00 16,8 15,1 16,3 19,8 16,8 6 4 11 6 WZW 1015,4 20 0 0,0
12.07.2019 03:00:00 17,0 14,3 16,0 20,0 16,8 5 3 11 6 ZW 1015,4 20 0 0,0
12.07.2019 02:00:00 17,0 14,8 16,6 20,0 16,8 0 0 4 2 N 1015,9 20 0 0,0
12.07.2019 01:00:00 16,9 14,7 16,2 20,2 16,8 2 1 10 5 ZZW 1016,0 20 0 0,0
12.07.2019 00:00:00 17,0 13,9 15,6 20,3 16,8 3 2 6 4 ZZO 1015,7 20 0 0,0
11.07.2019 23:00:00 16,5 14,7 15,5 20,4 16,8 2 1 7 4 ZO 1015,8 20 0 0,0
11.07.2019 22:00:00 16,7 14,9 16,2 20,6 16,8 5 3 13 7 O 1015,6 20 18 0,0
11.07.2019 21:00:00 17,7 15,1 18,8 20,6 16,8 9 5 17 9 NO 1015,5 20 60 0,0
11.07.2019 20:00:00 18,6 15,3 20,0 20,7 16,8 12 7 21 11 ONO 1015,3 20 42 0,0
11.07.2019 19:00:00 18,6 15,5 20,4 20,6 16,8 15 8 22 12 NO 1015,3 20 10 0,0
11.07.2019 18:00:00 19,2 16,1 19,8 20,6 16,8 14 8 21 12 ONO 1015,2 20 3 0,0
11.07.2019 17:00:00 19,5 15,6 20,8 20,5 16,8 14 8 22 12 ONO 1015,2 20 3 0,0
11.07.2019 16:00:00 21,8 15,6 22,3 20,2 16,8 12 6 22 12 O 1015,0 20 46 0,0
11.07.2019 15:00:00 20,5 15,5 23,9 19,9 16,8 17 9 26 14 ONO 1015,2 20 53 0,0
11.07.2019 14:00:00 20,6 15,6 25,7 19,7 16,8 14 8 24 13 NO 1015,1 20 60 0,0
11.07.2019 13:00:00 20,5 15,9 25,9 19,4 16,8 16 8 29 16 ONO 1015,1 20 57 0,0
11.07.2019 12:00:00 21,4 13,8 26,4 19,2 16,7 10 5 19 11 NNW 1014,9 20 60 0,0
11.07.2019 11:00:00 20,7 13,4 23,4 19,1 16,8 8 5 19 10 NW 1015,0 20 60 0,0
11.07.2019 10:00:00 19,4 11,7 19,2 19,1 16,7 7 4 14 8 W 1015,2 20 30 0,0
11.07.2019 09:00:00 18,0 11,8 17,0 19,1 16,7 11 6 17 9 W 1015,2 20 29 0,0
11.07.2019 08:00:00 16,5 11,8 15,3 19,2 16,8 7 4 10 5 W 1015,2 20 0 0,0
11.07.2019 07:00:00 16,1 11,5 14,5 19,3 16,7 5 3 15 8 WNW 1015,1 20 0 0,0
11.07.2019 06:00:00 15,8 12,4 14,2 19,5 16,7 8 5 11 6 W 1015,2 20 0 0,0
11.07.2019 05:00:00 15,5 12,8 14,7 19,6 16,7 6 3 15 8 NNW 1015,5 20 0 0,0
11.07.2019 04:00:00 16,3 12,5 15,2 19,7 16,7 7 4 13 7 WZW 1016,0 20 0 0,0
11.07.2019 03:00:00 17,0 12,1 15,2 19,8 16,7 4 2 14 8 ZW 1016,0 20 0 0,0
11.07.2019 02:00:00 17,0 12,5 15,4 20,0 16,7 2 1 10 6 NNW 1016,1 20 0 0,0
11.07.2019 01:00:00 17,0 12,9 15,2 20,1 16,7 9 5 11 6 W 1017,2 20 0 0,0
11.07.2019 00:00:00 17,5 13,0 15,0 20,3 16,8 4 2 5 3 W 1017,2 20 0 0,0
10.07.2019 23:00:00 18,2 12,9 15,3 20,4 16,7 0 0 3 2 N 1017,5 20 0 0,0
10.07.2019 22:00:00 19,2 12,2 17,1 20,5 16,7 0 0 5 3 N 1017,2 20 0 0,0
10.07.2019 21:00:00 20,2 12,2 19,5 20,6 16,7 3 1 9 5 O 1017,5 20 9 0,0
10.07.2019 20:00:00 21,7 10,2 22,2 20,6 16,7 8 4 16 8 NNO 1017,7 20 34 0,0
10.07.2019 19:00:00 22,2 10,7 24,6 20,5 16,7 10 5 16 9 NO 1017,9 20 42 0,0
10.07.2019 18:00:00 21,7 12,0 23,9 20,4 16,7 11 6 22 12 NO 1018,0 20 21 0,0
10.07.2019 17:00:00 22,7 13,5 27,0 20,2 16,7 16 9 25 14 NNO 1018,3 20 54 0,0
10.07.2019 16:00:00 23,2 13,7 26,7 19,9 16,7 19 10 23 13 NO 1018,4 20 49 0,0
10.07.2019 15:00:00 24,0 15,5 28,3 19,7 16,7 14 7 22 12 NO 1018,8 20 55 0,0
10.07.2019 14:00:00 23,8 15,6 28,7 19,3 16,7 14 7 22 12 NO 1019,3 20 56 0,0
10.07.2019 13:00:00 24,9 13,1 29,9 18,9 16,7 5 3 18 10 ZW 1019,5 20 60 0,0
10.07.2019 12:00:00 23,4 13,3 28,2 18,6 16,7 5 3 16 9 Z 1019,8 20 60 0,0
10.07.2019 11:00:00 22,0 13,4 24,3 18,4 16,7 7 4 14 7 Z 1020,0 20 60 0,0
10.07.2019 10:00:00 20,2 12,7 21,7 18,4 16,7 8 4 15 8 ZZO 1020,3 20 60 0,0
10.07.2019 09:00:00 18,9 12,9 20,8 18,4 16,6 7 4 10 5 ZO 1020,4 20 60 0,0
10.07.2019 08:00:00 16,9 13,2 12,8 18,5 16,7 5 3 7 4 ZZO 1020,5 20 60 0,0
10.07.2019 07:00:00 14,2 11,5 9,1 18,6 16,6 4 2 5 3 ZZO 1020,6 20 13 0,0
10.07.2019 06:00:00 13,7 11,0 9,4 18,8 16,6 3 2 6 3 W 1020,9 20 0 0,0
10.07.2019 05:00:00 12,9 11,1 9,4 19,0 16,6 4 2 8 4 W 1021,0 20 0 0,0
10.07.2019 04:00:00 14,3 11,3 9,7 19,2 16,6 5 3 8 4 W 1021,3 20 0 0,0

tt = temperatuur
td = dauwpunt
tt 5cm = temperatuur 5cm
tt -20cm = temperatuur -20cm
tt -100cm = temperatuur -100cm
ff = windsnelheid
fx = windstoten
dd = windrichting
ppp = luchtdruk
vv = zicht
sd = Zonneschijnduur
rr = neerslag

Weerstations in de omgeving